LINK4XN LLER-LLBG

Flight info

Callsign LINK4XN
Flight time 0h 44m
Altitude 1200
Route SAMAR YOTVT KTORA YAHEL BMNUH ZOFAR HAZVA ARAVA ZOHAR MMORR SHALM
Aircraft C750/M-SBDE3FGHRWXY/S

Departure

Time 2026-05-06 21:43
Airport Ramon International Airport (LLER)

Arrival

Time 2026-05-06 22:28
Airport Ben Gurion International Airport (LLBG)
Time Latitude Longitude Altitude Speed Heading
2026-05-06 21:29 29.72527 35.00785 294 ft 0 kts 283°
2026-05-06 21:36 29.72527 35.00787 294 ft 2 kts 283°
2026-05-06 21:37 29.72521 35.00816 297 ft 4 kts 281°
2026-05-06 21:37 29.72516 35.00847 296 ft 4 kts 275°
2026-05-06 21:37 29.72516 35.00877 294 ft 4 kts 255°
2026-05-06 21:37 29.72527 35.00897 298 ft 2 kts 195°
2026-05-06 21:38 29.72532 35.00899 297 ft 0 kts 194°
2026-05-06 21:39 29.72527 35.00897 298 ft 5 kts 194°
2026-05-06 21:40 29.72479 35.00884 294 ft 12 kts 190°
2026-05-06 21:40 29.72424 35.00921 296 ft 0 kts 110°
2026-05-06 21:41 29.72423 35.00928 297 ft 0 kts 105°
2026-05-06 21:41 29.72400 35.01040 294 ft 19 kts 94°
2026-05-06 21:42 29.72403 35.01199 295 ft 23 kts 106°
2026-05-06 21:42 29.72445 35.01336 294 ft 22 kts 14°
2026-05-06 21:42 29.72697 35.01407 294 ft 54 kts 13°
2026-05-06 21:42 29.73302 35.01577 338 ft 119 kts 12°
2026-05-06 21:43 29.74085 35.01808 472 ft 114 kts 12°
2026-05-06 21:43 29.74866 35.02008 765 ft 122 kts 10°
2026-05-06 21:43 29.75837 35.02195 1041 ft 159 kts
2026-05-06 21:43 29.76944 35.02362 1011 ft 171 kts
2026-05-06 21:44 29.78166 35.02391 1278 ft 165 kts 358°
2026-05-06 21:44 29.79261 35.02411 1188 ft 150 kts 10°
2026-05-06 21:44 29.80267 35.02646 1195 ft 144 kts 10°
2026-05-06 21:44 29.81187 35.02801 1197 ft 127 kts
2026-05-06 21:45 29.82022 35.02924 1207 ft 118 kts
2026-05-06 21:45 29.82821 35.03041 1177 ft 108 kts
2026-05-06 21:45 29.83520 35.03142 1198 ft 95 kts
2026-05-06 21:45 29.84168 35.03237 1178 ft 94 kts
2026-05-06 21:46 29.84837 35.03336 1205 ft 100 kts
2026-05-06 21:46 29.85547 35.03440 1214 ft 111 kts
2026-05-06 21:46 29.86326 35.03554 1196 ft 111 kts
2026-05-06 21:46 29.87070 35.03662 1218 ft 107 kts
2026-05-06 21:47 29.87786 35.03872 1178 ft 107 kts 28°
2026-05-06 21:47 29.88360 35.04375 1167 ft 111 kts 42°
2026-05-06 21:47 29.88889 35.04971 1168 ft 103 kts 41°
2026-05-06 21:47 29.89435 35.05540 1312 ft 96 kts 39°
2026-05-06 21:48 29.89905 35.06099 1795 ft 98 kts 47°
2026-05-06 21:48 29.90258 35.06733 2339 ft 94 kts 53°
2026-05-06 21:48 29.90664 35.07375 2413 ft 117 kts 31°
2026-05-06 21:48 29.91453 35.07645 2328 ft 118 kts 12°
2026-05-06 21:49 29.92300 35.07871 1861 ft 135 kts
2026-05-06 21:49 29.93270 35.07746 1518 ft 140 kts 340°
2026-05-06 21:49 29.94117 35.07363 1478 ft 119 kts 343°
2026-05-06 21:49 29.94837 35.07077 1327 ft 112 kts 343°
2026-05-06 21:50 29.95614 35.06799 1127 ft 122 kts 350°
2026-05-06 21:50 29.96419 35.06730 1107 ft 105 kts
2026-05-06 21:50 29.97198 35.06937 1151 ft 117 kts 20°
2026-05-06 21:50 29.97913 35.07296 1128 ft 110 kts 25°
2026-05-06 21:51 29.98623 35.07724 1061 ft 119 kts 27°
2026-05-06 21:51 29.99301 35.08163 1218 ft 118 kts 31°
2026-05-06 21:51 30.00067 35.08669 1323 ft 123 kts 24°
2026-05-06 21:51 30.00920 35.08886 1202 ft 130 kts
2026-05-06 21:52 30.01748 35.09170 1214 ft 120 kts 22°
2026-05-06 21:52 30.02510 35.09577 1212 ft 118 kts 22°
2026-05-06 21:52 30.03257 35.09970 1218 ft 118 kts 24°
2026-05-06 21:52 30.03973 35.10376 1219 ft 112 kts 32°
2026-05-06 21:53 30.04594 35.10926 1215 ft 113 kts 31°
2026-05-06 21:53 30.05265 35.11397 1210 ft 115 kts 30°
2026-05-06 21:53 30.05968 35.11820 1240 ft 116 kts 23°
2026-05-06 21:53 30.06695 35.12233 1234 ft 113 kts 25°
2026-05-06 21:54 30.07386 35.12680 1216 ft 112 kts 30°
2026-05-06 21:54 30.08064 35.13119 1218 ft 113 kts 26°
2026-05-06 21:54 30.08765 35.13549 1236 ft 115 kts 26°
2026-05-06 21:54 30.09514 35.13899 1225 ft 116 kts 20°
2026-05-06 21:55 30.10285 35.14190 1225 ft 115 kts 14°
2026-05-06 21:55 30.11065 35.14327 1215 ft 113 kts
2026-05-06 21:55 30.11845 35.14315 1213 ft 115 kts 354°
2026-05-06 21:55 30.12640 35.14199 1229 ft 115 kts 354°
2026-05-06 21:56 30.13439 35.14035 1220 ft 118 kts 349°
2026-05-06 21:56 30.14181 35.13650 1232 ft 117 kts 332°
2026-05-06 21:56 30.14969 35.13412 1230 ft 116 kts 347°
2026-05-06 21:56 30.15757 35.13138 1225 ft 117 kts 350°
2026-05-06 21:57 30.16552 35.13036 1224 ft 114 kts 354°
2026-05-06 21:57 30.17350 35.13065 1223 ft 118 kts
2026-05-06 21:57 30.18150 35.13267 1212 ft 116 kts 13°
2026-05-06 21:57 30.18944 35.13420 1168 ft 116 kts
2026-05-06 21:58 30.19741 35.13498 1144 ft 114 kts
2026-05-06 21:58 30.20526 35.13563 1139 ft 115 kts
2026-05-06 21:58 30.21318 35.13627 1157 ft 112 kts
2026-05-06 21:58 30.22101 35.13654 1247 ft 116 kts 359°
2026-05-06 21:59 30.22921 35.13553 1237 ft 118 kts 355°
2026-05-06 21:59 30.23736 35.13568 1223 ft 117 kts
2026-05-06 21:59 30.24536 35.13647 1227 ft 115 kts
2026-05-06 21:59 30.25366 35.13583 1250 ft 137 kts 348°
2026-05-06 22:00 30.26384 35.13311 1723 ft 161 kts 349°
2026-05-06 22:00 30.27538 35.13042 2267 ft 182 kts 350°
2026-05-06 22:00 30.28866 35.12725 2903 ft 207 kts 350°
2026-05-06 22:00 30.30352 35.12364 3568 ft 233 kts 349°
2026-05-06 22:01 30.32067 35.11950 3970 ft 264 kts 349°
2026-05-06 22:01 30.33873 35.11917 5223 ft 261 kts
2026-05-06 22:01 30.35721 35.12287 6088 ft 275 kts 11°
2026-05-06 22:01 30.37634 35.12680 7052 ft 281 kts
2026-05-06 22:02 30.39579 35.13048 8132 ft 286 kts
2026-05-06 22:02 30.41564 35.13423 9252 ft 291 kts
2026-05-06 22:02 30.43580 35.13813 10324 ft 294 kts
2026-05-06 22:02 30.45569 35.14202 11282 ft 299 kts
2026-05-06 22:03 30.47713 35.14614 11559 ft 326 kts
2026-05-06 22:03 30.50051 35.15063 11710 ft 353 kts
2026-05-06 22:03 30.52486 35.15535 12474 ft 356 kts
2026-05-06 22:03 30.54939 35.16014 13264 ft 359 kts
2026-05-06 22:04 30.57342 35.16839 13888 ft 364 kts 21°
2026-05-06 22:04 30.59684 35.18019 14569 ft 368 kts 24°
2026-05-06 22:04 30.62037 35.19241 15262 ft 372 kts 24°
2026-05-06 22:04 30.64435 35.20406 15976 ft 376 kts 22°
2026-05-06 22:05 30.66866 35.21563 16651 ft 380 kts 22°
2026-05-06 22:05 30.69312 35.22767 17363 ft 384 kts 23°
2026-05-06 22:05 30.71775 35.23997 18067 ft 388 kts 23°
2026-05-06 22:05 30.74290 35.25235 18576 ft 403 kts 24°
2026-05-06 22:06 30.76951 35.26539 18668 ft 436 kts 24°
2026-05-06 22:06 30.79843 35.27962 18805 ft 467 kts 24°
2026-05-06 22:06 30.82927 35.29484 18930 ft 495 kts 24°
2026-05-06 22:06 30.86192 35.31093 18994 ft 522 kts 24°
2026-05-06 22:07 30.89617 35.32783 19128 ft 543 kts 24°
2026-05-06 22:07 30.93151 35.34351 19850 ft 544 kts 16°
2026-05-06 22:07 30.96798 35.35305 20895 ft 520 kts 12°
2026-05-06 22:07 31.00424 35.35788 21045 ft 536 kts
2026-05-06 22:08 31.04186 35.36141 21243 ft 552 kts
2026-05-06 22:08 31.07988 35.36517 22181 ft 549 kts
2026-05-06 22:08 31.11858 35.36932 22272 ft 568 kts
2026-05-06 22:08 31.15856 35.37363 22274 ft 587 kts
2026-05-06 22:09 31.19987 35.37783 22284 ft 603 kts
2026-05-06 22:09 31.24213 35.38213 22295 ft 617 kts
2026-05-06 22:09 31.28527 35.38675 22547 ft 624 kts
2026-05-06 22:09 31.32863 35.39166 22941 ft 626 kts
2026-05-06 22:10 31.37148 35.40057 23290 ft 615 kts 12°
2026-05-06 22:10 31.41319 35.41010 23333 ft 612 kts 11°
2026-05-06 22:10 31.45527 35.41916 23336 ft 620 kts 10°
2026-05-06 22:10 31.49803 35.42841 23335 ft 628 kts 11°
2026-05-06 22:11 31.54112 35.43821 23414 ft 632 kts 11°
2026-05-06 22:11 31.58437 35.44813 23629 ft 633 kts 11°
2026-05-06 22:11 31.62772 35.45770 23808 ft 634 kts 11°
2026-05-06 22:11 31.67076 35.46677 23948 ft 624 kts
2026-05-06 22:12 31.71385 35.46728 24068 ft 604 kts 356°
2026-05-06 22:12 31.75295 35.45529 23943 ft 571 kts 333°
2026-05-06 22:12 31.78626 35.43152 23916 ft 567 kts 311°
2026-05-06 22:12 31.81131 35.39810 24314 ft 508 kts 301°
2026-05-06 22:13 31.82825 35.36369 24097 ft 475 kts 300°
2026-05-06 22:13 31.83972 35.32678 23958 ft 494 kts 288°
2026-05-06 22:13 31.84970 35.28685 23988 ft 522 kts 283°
2026-05-06 22:13 31.86043 35.24489 23988 ft 548 kts 284°
2026-05-06 22:14 31.87187 35.20195 23989 ft 570 kts 284°
2026-05-06 22:14 31.88420 35.15660 23984 ft 591 kts 284°
2026-05-06 22:14 31.89691 35.10981 23986 ft 608 kts 286°
2026-05-06 22:14 31.90915 35.06461 22104 ft 535 kts 284°
2026-05-06 22:15 31.92290 35.02653 18478 ft 485 kts 287°
2026-05-06 22:15 31.93660 34.99327 15326 ft 414 kts 292°
2026-05-06 22:15 31.94759 34.96537 12506 ft 334 kts 291°
2026-05-06 22:15 31.95476 34.93880 10074 ft 335 kts 283°
2026-05-06 22:16 31.95996 34.91518 8581 ft 308 kts 287°
2026-05-06 22:16 31.96898 34.89144 6860 ft 322 kts 301°
2026-05-06 22:16 31.98125 34.86932 5721 ft 308 kts 304°
2026-05-06 22:16 31.99367 34.85104 4995 ft 277 kts 317°
2026-05-06 22:17 32.00947 34.83960 5054 ft 263 kts 335°
2026-05-06 22:17 32.02650 34.83188 4962 ft 257 kts 339°
2026-05-06 22:17 32.04299 34.82514 5024 ft 253 kts 345°
2026-05-06 22:17 32.06086 34.82437 5051 ft 261 kts
2026-05-06 22:18 32.07876 34.82766 5031 ft 262 kts
2026-05-06 22:18 32.09628 34.83211 5096 ft 264 kts 18°
2026-05-06 22:18 32.11047 34.84420 5379 ft 245 kts 57°
2026-05-06 22:18 32.11843 34.86196 5215 ft 243 kts 68°
2026-05-06 22:19 32.11099 34.87982 5077 ft 280 kts 139°
2026-05-06 22:19 32.09556 34.89156 4723 ft 233 kts 152°
2026-05-06 22:19 32.08333 34.90117 3862 ft 179 kts 144°
2026-05-06 22:19 32.07376 34.90847 3365 ft 155 kts 154°
2026-05-06 22:20 32.06380 34.91297 2698 ft 155 kts 168°
2026-05-06 22:20 32.05661 34.91351 2341 ft 150 kts 184°
2026-05-06 22:20 32.04227 34.91361 1307 ft 156 kts 186°
2026-05-06 22:20 32.03261 34.90976 770 ft 136 kts 204°
2026-05-06 22:21 32.02465 34.90452 350 ft 128 kts 208°
2026-05-06 22:21 32.01938 34.90108 188 ft 130 kts 207°
2026-05-06 22:21 32.01181 34.89613 120 ft 116 kts 207°
2026-05-06 22:21 32.00662 34.89279 116 ft 56 kts 208°
2026-05-06 22:22 32.00110 34.88922 119 ft 138 kts 208°
2026-05-06 22:22 31.99226 34.88316 697 ft 148 kts 211°
2026-05-06 22:22 31.98549 34.87323 1383 ft 171 kts 249°
2026-05-06 22:22 31.98519 34.85859 2068 ft 192 kts 284°
2026-05-06 22:23 31.99061 34.84304 2622 ft 216 kts 310°
2026-05-06 22:23 32.00241 34.83247 3825 ft 209 kts 340°
2026-05-06 22:23 32.01717 34.82936 4807 ft 227 kts 356°
2026-05-06 22:23 32.03422 34.83154 5051 ft 270 kts
2026-05-06 22:24 32.05272 34.83435 5137 ft 267 kts
2026-05-06 22:24 32.07131 34.83715 5096 ft 266 kts
2026-05-06 22:24 32.08876 34.84197 5373 ft 263 kts 22°
2026-05-06 22:24 32.10268 34.85601 5328 ft 264 kts 56°
2026-05-06 22:25 32.10914 34.87617 5176 ft 262 kts 79°
2026-05-06 22:25 32.10933 34.89738 5054 ft 259 kts 107°
2026-05-06 22:25 32.09491 34.90936 4729 ft 267 kts 174°
2026-05-06 22:25 32.07728 34.91031 3233 ft 265 kts 159°
2026-05-06 22:26 32.06239 34.91677 3168 ft 177 kts 164°
2026-05-06 22:26 32.05138 34.91715 2276 ft 158 kts 185°
2026-05-06 22:26 32.04069 34.91481 1256 ft 155 kts 196°
2026-05-06 22:26 32.03187 34.90929 637 ft 135 kts 208°
2026-05-06 22:27 32.02388 34.90394 310 ft 128 kts 206°
2026-05-06 22:27 32.01610 34.89890 123 ft 126 kts 207°
2026-05-06 22:27 32.00966 34.89476 119 ft 74 kts 209°
2026-05-06 22:27 32.00625 34.89255 115 ft 51 kts 209°
2026-05-06 22:28 32.00329 34.89059 114 ft 47 kts 212°
2026-05-06 22:28 32.00157 34.88865 117 ft 31 kts 237°
2026-05-06 22:28 32.00117 34.88790 117 ft 5 kts 238°
2026-05-06 22:28 32.00081 34.88680 116 ft 21 kts 277°
2026-05-06 22:29 32.00162 34.88513 117 ft 31 kts 303°
2026-05-06 22:29 32.00254 34.88338 117 ft 17 kts 302°
2026-05-06 22:29 32.00344 34.88165 115 ft 28 kts 302°
2026-05-06 22:29 32.00450 34.87951 116 ft 21 kts 278°
2026-05-06 22:30 32.00333 34.87835 116 ft 27 kts 211°
2026-05-06 22:30 32.00282 34.87825 115 ft 3 kts 124°
2026-05-06 22:30 32.00279 34.87832 115 ft 0 kts 123°
2026-05-06 22:31 32.00266 34.87856 116 ft 12 kts 121°
2026-05-06 22:31 32.00253 34.87881 116 ft 0 kts 121°
2026-05-06 22:31 32.00253 34.87883 116 ft 0 kts 121°